Regional Weather Roundup
Issued by NWS Little Rock, AR

Home | Current Version | Previous Version | Text Only | Print | Product List | Glossary On
Versions: 1 2 3 4 5 6 7 8 9 10 11 12 13 14 15 16 17 18 19 20 21 22 23 24 25 26 27 28 29 30 31 32 33 34 35 36 37 38 39 40 41 42 43 44 45 46 47 48 49 50
260
ASUS44 KLZK 261905
RWRLZK

WEATHER ROUNDUP FOR ARKANSAS
NATIONAL WEATHER SERVICE LITTLE ROCK AR
200 PM CDT TUE SEP 26 2017

NOTE: "FAIR" INDICATES FEW OR NO CLOUDS BELOW 12,000 FEET WITH NO
SIGNIFICANT WEATHER AND/OR OBSTRUCTIONS TO VISIBILITY.

ARZ001-003-010-029-262000-
NORTHWEST ARKANSAS

CITY           SKY/WX    TMP DP  RH WIND       PRES   REMARKS
FAYETTEVILLE   MOSUNNY   83  65  54 E3        30.00F HX  85
FORT SMITH     MOSUNNY   90  64  42 MISG      29.95F HX  91
HARRISON       MOSUNNY   86  60  41 E6        30.00F HX  86
BENTONVILLE    SUNNY     83  66  56 VRB3      30.02F HX  85
ROGERS         SUNNY     83  68  60 VRB3      30.02F HX  86
SILOAM SPGS    PTSUNNY   82  68  62 N7        30.01F HX  85
HIGHFILL       PTSUNNY   82  67  60 N6        30.01F
SPRINGDALE     PTSUNNY   82  66  57 E3        30.02F HX  85
$$

ARZ004-005-016-262000-
NORTH CENTRAL ARKANSAS

CITY           SKY/WX    TMP DP  RH WIND       PRES   REMARKS
BATESVILLE     MOSUNNY   89  64  43 VRB5      29.97F HX  90
FLIPPIN        SUNNY     89  62  40 VRB3      29.97F HX  89
MTN HOME       SUNNY     89  59  36 SW6       29.97F HX  88
$$

ARZ040-041-262000-
WEST CENTRAL ARKANSAS

CITY           SKY/WX    TMP DP  RH WIND       PRES   REMARKS
MENA           NOT AVBL
MOUNT IDA      SUNNY     89  54  30 VRB3      29.95F HX  87
$$

ARZ009-017-025-026-028-262000-
NORTHEAST ARKANSAS

CITY           SKY/WX    TMP DP  RH WIND       PRES   REMARKS
JONESBORO      PTSUNNY   91  68  46 NE7       29.95F HX  95
NEWPORT        SUNNY     88  66  48 CALM      29.96F HX  90
WALNUT RIDGE   MOSUNNY   90  66  45 VRB5      29.96F HX  92
BLYTHEVILLE    SUNNY     89  66  46 SE6       29.96F HX  91
NW BLYTHEVILLE MOSUNNY   91  66  43 VRB3      29.96F HX  94
$$

ARZ022-023-033-042-044-262000-
CENTRAL ARKANSAS

CITY           SKY/WX    TMP DP  RH WIND       PRES   REMARKS
LITTLE ROCK    MOSUNNY   87  65  47 VRB3      29.95F HX  89
N LITTLE ROCK    N/A     88  66  47 E5        29.96F HX  90
JACKSONVILLE   SUNNY     91  66  43 SE8       29.95F HX  93
SEARCY         SUNNY     91  66  43 CALM      29.97F HX  93
HOT SPRINGS    CLOUDY    87  64  46 CALM      29.95F HX  88
RUSSELLVILLE   SUNNY     89  61  38 E5        29.95F HX  89
$$

ARZ036-262000-
EAST ARKANSAS

CITY           SKY/WX    TMP DP  RH WIND       PRES   REMARKS
WEST MEMPHIS   PTSUNNY   87  67  51 CALM      29.94F HX  90
$$

ARZ050-053-066-070-073-262000-
SOUTHWEST ARKANSAS

CITY           SKY/WX    TMP DP  RH WIND       PRES   REMARKS
ARKADELPHIA    FAIR      89  68  49 VRB5      29.94F HX  93
CAMDEN         SUNNY     93  64  38 VRB5      29.93F HX  95
TEXARKANA      SUNNY     89  64  43 VRB6      29.93F HX  90
EL DORADO      MOSUNNY   88  64  44 NE8       29.94F HX  89
DE QUEEN       SUNNY     89  66  46 CALM      29.92F HX  91
$$

ARZ056-057-069-262000-
SOUTHEAST ARKANSAS

CITY           SKY/WX    TMP DP  RH WIND       PRES   REMARKS
PINE BLUFF     MOSUNNY   85  67  54 CALM      29.95F HX  87
STUTTGART      PTSUNNY   87  68  52 NE8       29.95F HX  90
MONTICELLO     SUNNY     84  69  60 SE5       29.95F HX  88

$$






USA.gov is the U.S. government's official web portal to all federal, state and local government web resources and services.